Location: Unspecified
(0.0000°N, 0.0000°E)
Time: 23:25:57
(UTC+00:00)

DMSP B5D2-3 - Pass Details

Date: 14 June 2023
Orbit: 818 x 838 km, 98.7° (Epoch: 28 September)

Event Time Altitude Azimuth Distance (km) Brightness Sun altitude
Rises 18:52:18 0° 341° (NNW) 3,349 9.0 -11.9°
Reaches altitude 10° 18:55:29 10° 321° (NW) 2,423 8.6 -12.6°
Maximum altitude 18:58:46 17° 283° (WNW) 2,005 8.3 -13.4°
Drops below altitude 10° 19:02:05 10° 245° (WSW) 2,438 8.2 -14.2°
Sets 19:05:19 0° 224° (SW) 3,378 8.6 -14.9°
